[Iaude] MPEC B31: 2024 BH [a=0.96,e=0.16,i=12.8,H=23.3]
    mpec at marsden.cfa.harvard.edu 
    mpec at marsden.cfa.harvard.edu
       
    Thu Jan 18 09:21:02 EST 2024
    
    
  
M.P.E.C. 2024-B31                              Issued 2024 January 18, 14:19 UT
     The Minor Planet Electronic Circulars contain information on unusual
         minor planets, routine data on comets and natural satellites,
         and occasional editorial announcements.  They are published
    on behalf of Division F of the International Astronomical Union by the
          Minor Planet Center, Smithsonian Astrophysical Observatory,
                          Cambridge, MA 02138, U.S.A.
			  
             Prepared using the Tamkin Foundation Computer Network
                              MPC at CFA.HARVARD.EDU
            URL https://www.minorplanetcenter.net/    ISSN 1523-6714
                                    2024 BH                                     
Observations:
     K24B00H*1C2024 01 16.39416509 56 01.108-15 55 03.18               VEB031G96
     K24B00H 1C2024 01 16.39929309 56 01.237-15 54 53.93         20.43GVEB031G96
     K24B00H 1C2024 01 16.40442909 56 01.349-15 54 43.09         20.43GVEB031G96
     K24B00H 1C2024 01 16.40957509 56 01.468-15 54 32.33         20.21GVEB031G96
     K24B00H KC2024 01 16.44767509 56 02.407-15 53 13.85         20.65GVEB031V06
     K24B00H KC2024 01 16.44873909 56 02.432-15 53 11.58         20.51GVEB031V06
     K24B00H KC2024 01 16.44980209 56 02.458-15 53 09.31         20.46GVEB031V06
     K24B00H KC2024 01 16.45086609 56 02.461-15 53 07.19         20.39GVEB031V06
     K24B00H KC2024 01 16.49479409 56 03.660-15 51 34.31         20.57GVEB031V06
     K24B00H KC2024 01 16.49586109 56 03.664-15 51 32.29         20.49GVEB031V06
     K24B00H KC2024 01 16.49692809 56 03.692-15 51 30.06         20.91GVEB031V06
     K24B00H KC2024 01 16.49799409 56 03.728-15 51 28.15         21.14GVEB031V06
     K24B00H 1C2024 01 17.05494 09 56 32.76 -15 31 54.7          21.7 VXEB031033
     K24B00H 1C2024 01 17.05692 09 56 32.80 -15 31 51.3          20.2 VXEB031033
     K24B00H 1C2024 01 17.05805 09 56 32.82 -15 31 48.3          20.1 VXEB031033
     K24B00H |C2024 01 17.21413009 56 42.170-15 24 43.20         20.0 GVEB031807
     K24B00H |C2024 01 17.21773009 56 42.260-15 24 34.90         20.2 GVEB031807
     K24B00H |C2024 01 17.22133009 56 42.330-15 24 27.60         20.5 GVEB031807
     K24B00H mC2024 01 17.36840909 56 48.512-15 20 05.46         20.41GVEB031V06
     K24B00H mC2024 01 17.37053709 56 48.556-15 20 00.64         20.31GVEB031V06
     K24B00H mC2024 01 17.37105309 56 48.577-15 19 59.34         20.22GVEB031V06
     K24B00H mC2024 01 17.37316409 56 48.620-15 19 54.62         20.39GVEB031V06
     K24B00H |C2024 01 18.18272109 57 29.150-14 46 49.00         20.5 GVEB031807
     K24B00H |C2024 01 18.18513009 57 29.210-14 46 43.60         20.5 GVEB031807
Observer details:
033 Karl Schwarzschild Observatory, Tautenburg.  Observers S. Melnikov, C.
    Hogner, F. Ludwig, M. Hartmann, B. Stecklum.  Measurer B. Stecklum.
    1.34-m f/3 Schmidt + CCD.
807 Cerro Tololo Observatory, La Serena.  Observers T. Linder, R. Holmes.
    0.61-m f/11 Ritchey-Chretien + CCD.
G96 Mt. Lemmon Survey.  Observer J. K. Hogan.  Measurers T. Beuden, V. F.
    Carvajal, D. Fay, J. B. Fazekas, D. C. Fuls, A. R. Gibbs, A. D. Grauer, H.
    Groeller, J. K. Hogan, R. A. Kowalski, S. M. Larson, G. J. Leonard, D.
    Rankin, R. L. Seaman, F. C. Shelly, K. W. Wierzchos.  1.5-m reflector +
    10K CCD.
V06 Catalina Sky Survey-Kuiper.  Observer G. J. Leonard.  Measurers T. Beuden,
    V. F. Carvajal, D. Fay, J. B. Fazekas, D. C. Fuls, A. R. Gibbs, A. D.
    Grauer, H. Groeller, J. K. Hogan, R. A. Kowalski, S. M. Larson, G. J.
    Leonard, D. Rankin, R. L. Seaman, F. C. Shelly, K. W. Wierzchos.  1.55-m
    reflector + 1K CCD.
Orbital elements:
2024 BH                                                  Earth MOID = 0.0460 AU
Epoch 2023 Sept. 13.0 TT = JDT 2460200.5                Veres                   
M  98.29359              (2000.0)            P               Q                  
n   1.04178929     Peri.  128.66489     -0.11640847     +0.98026826             
a   0.9637169      Node   133.84253     -0.96611906     -0.07445288             
e   0.1602196      Incl.   12.79746     -0.23035414     -0.18311449             
P   0.95           H   23.34          G   0.15           U   8                  
Residuals in seconds of arc
240116 G96 (0.1+  0.9+)   240116 V06  0.5+  0.2+    240117 807  0.1-  0.4+
240116 G96  0.2+  0.3-    240116 V06  0.1+  0.0     240117 807  0.4-  0.2-
240116 G96  0.0   0.0     240116 V06  0.1+  0.1-    240117 V06  0.1+  0.1-
240116 G96  0.0   0.2+    240116 V06  0.2+  0.4-    240117 V06  0.0   0.1-
240116 V06  0.2+  0.2-    240117 033  0.7-  1.1+    240117 V06  0.2+  0.0
240116 V06  0.2+  0.1-    240117 033  0.9-  0.1+    240117 V06  0.1+  0.0
240116 V06  0.2+  0.1-    240117 033  1.1-  0.7+    240118 807  0.4+  0.1+
240116 V06  0.1-  0.2-    240117 807  0.1-  0.0     240118 807  0.3+  0.3-
Ephemeris:
2024 BH                  a,e,i = 0.96, 0.16, 13                  q = 0.8093
Date    TT    R. A. (2000) Decl.     Delta      r    Elong.  Phase     V
2023 12 19    09 27 00.3 -19 38 23   0.2747  1.1116   110.8    55.8    22.8
...
2024 01 03    09 43 59.3 -19 48 08   0.1999  1.0969   120.0    50.9    21.9
...
2024 01 11    09 51 30.7 -18 14 13   0.1599  1.0859   126.3    46.9    21.3
...
2024 01 17    09 56 30.0 -15 32 56   0.1305  1.0761   132.4    42.4    20.7
2024 01 18    09 57 17.8 -14 54 39   0.1257  1.0744   133.6    41.5    20.6
2024 01 19    09 58 05.3 -14 12 13   0.1210  1.0726   134.8    40.6    20.5
...
2024 01 25    10 02 51.3 -08 02 02   0.09355 1.0613   143.8    33.2    19.7
...
2024 02 02    10 10 16.4 +09 31 09   0.06231 1.0445   161.1    17.8    18.3
...
2024 02 17    11 46 20.9 +81 27 36   0.05618 1.0085   109.9    67.1    19.5
M. P. C. Staff               (C) Copyright 2024 MPC           M.P.E.C. 2024-B31
    
    
More information about the Iaude
mailing list